Location: Hengforden
(52.3167°N, 6.1333°E)
Time: 16:00:00
(UTC+00:00)

SWAS - Pass Details

Date: 14 June 2025
Orbit: 544 x 550 km, 69.9° (Epoch: 19 July)

Event Time Altitude Azimuth Distance (km) Brightness Sun altitude
Rises 22:15:24 0° 326° (NW) 2,722 9.5 -12.4°
Reaches altitude 10° 22:17:36 10° 326° (NW) 1,825 8.3 -12.5°
Maximum altitude 22:21:40 83° 239° (WSW) 557 4.3 -12.7°
Enters shadow 22:24:24 20° 153° (SSE) 1,289 5.6 -12.8°
